Fulton, NY

9:37 AM EDT on March 29, 2017 (GMT -0400)
Oswego County

Weather History for KFZY - March, 2013

Change the Weather History Date:

Tuesday, March 5, 2013

  Actual Average (KSYR) Record (KSYR)
Temperature  
Mean Temperature 27 °F -  
Max Temperature 33 °F 41 °F 71 °F (1976)
Min Temperature 21 °F 25 °F -8 °F (1948)
Degree Days  
Heating Degree Days 38    
Moisture  
Dew Point 20 °F    
Average Humidity 72    
Maximum Humidity 85    
Minimum Humidity 60    
Precipitation  
Precipitation 0.00 in - - ()
Sea Level Pressure  
Sea Level Pressure 30.07 in    
Wind  
Wind Speed 5 mph (NNW)    
Max Wind Speed 10 mph    
Max Gust Speed -    
Visibility 10 miles    
Events      
Averages and records for this station are not official NWS values.
T = Trace of Precipitation, MM = Missing Value Source: NWS Daily Summary

Daily Weather History Graph

Daily Weather History Graph

Search for Another Location

Airport or City:

Trip Planner

Search our weather history database for the weather conditions in past years. The results will help you decide how hot, cold, wet, or windy it might be!

Date:

Astronomy

Mar. 05, 2013 Rise Set
Actual Time 6:34 AM EST 5:59 PM EST
Civil Twilight 6:06 AM EST 6:28 PM EST
Nautical Twilight 5:33 AM EST 7:01 PM EST
Astronomical Twilight 5:00 AM EST 7:34 PM EST
Moon 1:52 AM EST (3/5) 11:29 AM EST (3/5)
Length of Visible Light 12h 22m
Length of Day
11h 25m
Last Quarter, 41% of the Moon is Illuminated
Mar 5
Last Quarter
Mar 11
New
Mar 19
First Quarter
Mar 27
Full
Apr 3
Last Quarter

Hourly Weather History & Observations

Time (EST) Temp. Windchill Dew Point Humidity Pressure Visibility Wind Dir Wind Speed Gust Speed Precip Events Conditions
12:54 AM 28.0 °F 18.6 °F 21.0 °F 75% 30.02 in 10.0 mi WNW 10.4 mph - N/A   Overcast
2:54 AM 28.0 °F 20.8 °F 21.0 °F 75% 30.03 in 10.0 mi WNW 6.9 mph - N/A   Overcast
3:54 AM 28.0 °F 20.0 °F 19.9 °F 72% 30.05 in 10.0 mi WNW 8.1 mph - N/A   Overcast
4:54 AM 28.0 °F 20.8 °F 19.9 °F 72% 30.07 in 10.0 mi NW 6.9 mph - N/A   Overcast
5:54 AM 27.0 °F - 19.0 °F 72% 30.08 in 10.0 mi Calm Calm - N/A   Overcast
8:54 AM 27.0 °F 20.5 °F 19.0 °F 72% 30.11 in 10.0 mi NW 5.8 mph - N/A   Overcast
9:54 AM 28.0 °F 24.2 °F 19.9 °F 72% 30.11 in 10.0 mi NNW 3.5 mph - N/A   Overcast
10:54 AM 30.0 °F 25.2 °F 19.9 °F 66% 30.10 in 10.0 mi North 4.6 mph - N/A   Overcast
11:54 AM 28.9 °F - 19.9 °F 69% 30.10 in 10.0 mi Calm Calm - N/A   Overcast
12:54 PM 30.9 °F - 19.9 °F 64% 30.09 in 10.0 mi Calm Calm - N/A   Overcast
1:54 PM 30.9 °F - 21.0 °F 67% 30.09 in 10.0 mi Calm Calm - N/A   Overcast
2:54 PM 33.1 °F - 21.0 °F 61% 30.09 in 10.0 mi Calm Calm - N/A   Overcast
3:33 PM 33.8 °F 28.6 °F 21.2 °F 60% 30.06 in 10.0 mi WNW 5.8 mph - N/A   Scattered Clouds
3:54 PM 32.0 °F 26.4 °F 21.9 °F 66% 30.08 in 10.0 mi NNW 5.8 mph - 0.00 in   Partly Cloudy
4:54 PM 32.0 °F 26.4 °F 21.0 °F 64% 30.08 in 10.0 mi North 5.8 mph - N/A   Clear
5:54 PM 28.0 °F 22.8 °F 21.0 °F 75% 30.07 in 10.0 mi NNE 4.6 mph - N/A   Clear
6:54 PM 27.0 °F - 19.9 °F 75% 30.06 in 10.0 mi Calm Calm - N/A   Clear
7:54 PM 26.1 °F - 19.0 °F 75% 30.05 in 10.0 mi Calm Calm - N/A   Clear
8:54 PM 25.0 °F 19.3 °F 19.9 °F 81% 30.05 in 10.0 mi SSE 4.6 mph - N/A   Clear
9:54 PM 21.0 °F - 17.1 °F 85% 30.05 in 10.0 mi Calm Calm - N/A   Clear
10:54 PM 23.0 °F 15.8 °F 18.0 °F 81% 30.02 in 10.0 mi East 5.8 mph - N/A   Clear
11:54 PM 23.0 °F 18.4 °F 18.0 °F 81% 30.01 in 10.0 mi East 3.5 mph - N/A   Clear